McKinney, TX

3:45 AM CDT on October 17, 2017 (GMT -0500)
Collin County Regional

Weather History for KTKI - March, 2014

Change the Weather History Date:

Wednesday, March 26, 2014

  Actual Average (KADS) Record (KADS)
Temperature  
Mean Temperature 50 °F -  
Max Temperature 59 °F 67 °F 82 °F (2004)
Min Temperature 42 °F 50 °F 33 °F (2013)
Degree Days  
Heating Degree Days 14    
Moisture  
Dew Point 38 °F    
Average Humidity 61    
Maximum Humidity 72    
Minimum Humidity 48    
Precipitation  
Precipitation 0.07 in - - ()
Sea Level Pressure  
Sea Level Pressure 30.10 in    
Wind  
Wind Speed 9 mph (SE)    
Max Wind Speed 22 mph    
Max Gust Speed 29 mph    
Visibility 10 miles    
Events Rain    
Averages and records for this station are not official NWS values.
T = Trace of Precipitation, MM = Missing Value Source: NWS Daily Summary

Daily Weather History Graph

Daily Weather History Graph

Search for Another Location

Airport or City:

Trip Planner

Search our weather history database for the weather conditions in past years. The results will help you decide how hot, cold, wet, or windy it might be!

Date:

Astronomy

Mar. 26, 2014 Rise Set
Actual Time 7:22 AM CDT 7:42 PM CDT
Civil Twilight 6:57 AM CDT 8:07 PM CDT
Nautical Twilight 6:28 AM CDT 8:36 PM CDT
Astronomical Twilight 5:58 AM CDT 9:05 PM CDT
Moon 4:18 AM CDT (3/26) 3:34 PM CDT (3/26)
Length of Visible Light 13h 09m
Length of Day
12h 20m
Waning Crescent, 21% of the Moon is Illuminated
Mar 26
Waning Crescent
Mar 30
New
Apr 7
First Quarter
Apr 15
Full
Apr 22
Last Quarter

Hourly Weather History & Observations

Time (CDT) Temp. Windchill Dew Point Humidity Pressure Visibility Wind Dir Wind Speed Gust Speed Precip Events Conditions
12:53 AM 44.1 °F 41.5 °F 28.9 °F 55% 30.23 in 10.0 mi East 4.6 mph - N/A   Clear
1:53 AM 45.0 °F 43.5 °F 28.9 °F 53% 30.22 in 10.0 mi SE 3.5 mph - N/A   Clear
2:53 AM 42.1 °F 40.2 °F 28.9 °F 60% 30.22 in 10.0 mi SE 3.5 mph - N/A   Clear
3:53 AM 44.1 °F 42.5 °F 28.0 °F 53% 30.21 in 10.0 mi SE 3.5 mph - N/A   Clear
4:53 AM 43.0 °F 40.3 °F 30.0 °F 60% 30.20 in 10.0 mi SE 4.6 mph - N/A   Clear
5:53 AM 44.1 °F 39.5 °F 30.0 °F 58% 30.20 in 10.0 mi SE 8.1 mph - N/A   Clear
6:53 AM 44.1 °F 40.1 °F 30.0 °F 58% 30.19 in 10.0 mi ESE 6.9 mph - N/A   Clear
7:53 AM 43.0 °F 38.8 °F 30.9 °F 62% 30.20 in 10.0 mi ESE 6.9 mph - N/A   Scattered Clouds
8:53 AM 48.0 °F - 30.9 °F 52% 30.20 in 10.0 mi ESE 8.1 mph - N/A   Overcast
9:53 AM 50.0 °F - 30.9 °F 48% 30.22 in 10.0 mi SSE 10.4 mph - 0.00 in   Overcast
10:53 AM 48.9 °F - 37.0 °F 64% 30.22 in 10.0 mi South 9.2 mph - 0.00 in Rain Light Rain
11:53 AM 51.1 °F - 35.1 °F 54% 30.16 in 10.0 mi SE 13.8 mph 21.9 mph 0.00 in Rain Light Rain
12:53 PM 54.0 °F - 37.0 °F 53% 30.13 in 10.0 mi SSE 16.1 mph 23.0 mph 0.01 in   Overcast
1:53 PM 54.0 °F - 37.9 °F 55% 30.11 in 10.0 mi SE 5.8 mph - 0.00 in   Overcast
2:53 PM 52.0 °F - 42.1 °F 69% 30.08 in 10.0 mi SE 8.1 mph - 0.04 in Rain Light Rain
3:53 PM 52.0 °F - 43.0 °F 71% 30.03 in 10.0 mi SE 10.4 mph - 0.02 in   Overcast
4:53 PM 55.9 °F - 43.0 °F 62% 29.99 in 10.0 mi SE 12.7 mph - N/A   Overcast
5:53 PM 57.0 °F - 45.0 °F 64% 29.97 in 10.0 mi SSE 17.3 mph - N/A   Overcast
6:53 PM 57.0 °F - 46.0 °F 67% 29.97 in 10.0 mi SSE 17.3 mph - N/A   Overcast
7:53 PM 59.0 °F - 46.9 °F 64% 29.96 in 10.0 mi South 16.1 mph - N/A   Overcast
8:53 PM 59.0 °F - 48.0 °F 67% 29.94 in 10.0 mi SSE 19.6 mph 26.5 mph N/A   Overcast
9:53 PM 59.0 °F - 48.0 °F 67% 29.95 in 10.0 mi SSE 21.9 mph 28.8 mph N/A   Overcast
10:53 PM 57.9 °F - 48.0 °F 70% 29.94 in 10.0 mi South 21.9 mph 27.6 mph N/A   Overcast
11:53 PM 57.9 °F - 48.9 °F 72% 29.93 in 10.0 mi South 19.6 mph 27.6 mph N/A   Overcast